FALCON 9 DEB, 52893

Orbit data source: Space-Track

FALCON 9 DEB, 52893 is space debris in LEO originally from a launch on Sun, 19 Jun 2022 UTC launched from the Air Force Eastern Test Range (AFETR). Debris objects in space refer to the collection of defunct objects orbiting the Earth. Examples of debris include non-operational satellites, rocket bodies, and fragments generated from explosions, collisions, or faulty payload assembly.

Loading next visibility...
Identifier
52893, 2022-064F
Orbit
LEO
Country
Flag of USUS
Related business
Manufacturer
SpaceX/Seattle
Mission
Spacecraft
Bus & Motor
Unknown
Mass
~50 kg wet, ~50 kg dry
Launch date (UTC)
2022-06-19 (4 years ago)
Launch vehicle
Unknown
Launch site
Air Force Eastern Test Range (AFETR)
Object type
Payload
Rocket body
Debris
Shape & HBR
Cyl, 3.5 m
Radar Cross Section
0.110 m², Medium (>0.1 m² and < 1m²)

Expand to show TLE details & history
Last TLE update: 3 days ago

TLE from 3 days ago
0 FALCON 9 DEB
1 52893U 22064F   26170.84509445  .00005112  00000-0  14861-3 0  9998
2 52893  52.9892 316.6581 0006914 157.1074 203.0237 15.37221868180143
Epoch: 2026-06-19T20:16Z
TLE epoch observation values (Epoch: 2026-06-19T20:16:56.160Z)
Latitude
-0.00002°
Longitude
104.35585°
Altitude
459.561 km
Speed
7.636 km/s
True Right ascension
21h 06m 37s
True Declination
0° 00' 00"
Sunlit
Object was in full shadow at epoch
Visualization orbit readout
Latitude
Unknown
Longitude
Unknown
Altitude
Unknown
Speed
Unknown
Apparent Right ascension
Unknown
Apparent Declination
Unknown
Sunlit
N/A
Visualization observer readout
Local Sidereal Time
21:35:32
Azimuth
Unknown
Elevation
Unknown
Doppler factor
Unknown
Orbital elements
Apogee altitude
459.338 km
Perigee altitude
449.89 km
Semi-major axis
6,832.751 km
Eccentricity
0.00069
Inclination
52.9892°
RAAN
316.6581°
Arg. of periapsis
157.1074°
True anomaly
202.99274°
Mean anomaly
203.0237°
Eccentric anomaly
203.00822°
Mean motion
3.84282 °/min
Orbital period
93.68 mins
BSTAR
0.00014861
Loading maneuver chart data...
Computing Atmospheric mass density...
Loading historical data...
Loading historical data...
Loading historical data...
Loading historical data...
Loading historical data...
Loading historical data...
Loading historical data...
Other satellites on launch #64 in the year 2022 (2022-06-19 UTC)

Documentation

Showing up to 5 results
|